Regional Weather Roundup
Issued by NWS Green Bay, WI

Home | Current Version | Previous Version | Graphics & Text | Print | Product List | Glossary Off
Versions: 1 2 3 4 5 6 7 8 9 10 11 12 13 14 15 16 17 18 19 20 21 22 23 24 25 26 27 28 29 30 31 32 33 34 35 36 37 38 39 40 41 42 43 44 45 46 47 48 49 50

360
ASUS43 KGRB 181611
RWRGRB

NORTH-CENTRAL AND NORTHEAST WISCONSIN REGIONAL WEATHER ROUNDUP
NATIONAL WEATHER SERVICE GREEN BAY WI
1000 AM CST SAT NOV 18 2017

WIZ005-009-010>012-018-019-181700-
NORTH CENTRAL WISCONSIN

CITY           SKY/WX    TMP DP  RH WIND       PRES   REMARKS
IRONWOOD       CLOUDY   N/A N/A N/A NW9       29.70S
MANITOWISH WTR CLOUDY    32  32 100 N6        29.66S
ARBOR VITAE    CLOUDY    34  32  93 N9        29.66S
EAGLE RIVER    CLOUDY    32  32  99 N8        29.64R
LAND O LAKES   CLOUDY    32  31  96 N7        29.66S
RHINELANDER    CLOUDY    33  31  92 VRB7      29.65R
PHILLIPS       CLOUDY    32  31  96 N7G16     29.68R
ANTIGO         CLOUDY    33  31  93 N13       29.62S
TOMAHAWK       CLOUDY    32  31  94 N8        29.66S
MERRILL        CLOUDY    34  32  90 N8        29.66R
$$

WIZ013-073-181700-
NORTHEAST WISCONSIN

CITY           SKY/WX    TMP DP  RH WIND       PRES   REMARKS
IRON MOUNTAIN  CLOUDY    35  30  82 N10       29.61R
MARINETTE      CLOUDY    38  36  92 N9        29.61S FOG
OCONTO         CLOUDY    37  34  87 N10       29.60F
$$

WIZ017-030-035>037-045-181700-
CENTRAL WISCONSIN

CITY           SKY/WX    TMP DP  RH WIND       PRES   REMARKS
MEDFORD        CLOUDY    33  31  93 N12G17    29.66R
WAUSAU         CLOUDY    35  31  85 N10       29.62S
MOSINEE        CLOUDY    34  34 100 N10G18    29.64S
MARSHFIELD     CLOUDY    35  31  85 N15       29.63F
WISC RAPIDS    CLOUDY    37  33  85 N13G18    29.64F
STEVENS POINT  CLOUDY    34  33  96 N10       29.63F
WAUPACA        CLOUDY    39  35  85 NW10      29.61F
SHAWANO        CLOUDY    38  35  87 N6        29.62S
CLINTONVILLE   CLOUDY    37  34  87 N8        29.61F
WAUTOMA        CLOUDY    37  34  89 N9        29.62F
$$

WIZ038-039-048-051-181700-
FOX VALLEY

CITY           SKY/WX    TMP DP  RH WIND       PRES   REMARKS
NWS GREEN BAY  CLOUDY    39  36  89 N12G22    29.58F
APPLETON       CLOUDY    36  36 100 N13G20    29.57F
OSHKOSH        CLOUDY    37  35  92 N9        29.61R
FOND DU LAC    CLOUDY    37  33  85 N16G25    29.60R
$$

WIZ022-050-052-181700-
EAST CENTRAL WISCONSIN

CITY           SKY/WX    TMP DP  RH WIND       PRES   REMARKS
EPHRAIM        CLOUDY    38  34  84 N13G23    29.57S
WASHINGTON ISL CLOUDY    39  35  86 N15       29.57S
STURGEON BAY   CLOUDY    38  36  92 N16G25    29.58F
MANITOWOC      CLOUDY    38  35  89 N15G22    29.59R
SHEBOYGAN      LGT RAIN  37  36  96 N12       29.57R
$$

LMZ563-521-522-541>543-181700-
LAKESHORE

STATION/POSITION TIME  TEMP    WIND        PRES    VSBY  WAVE
                       AIR SEA DIR/SP/G                  HT/PER
                 (UTC) (F)     (DEG/KT/KT) (MB)    (MI)  (FT/S)
SHEBOYGAN LKSHOR 1600   38     340/ 17/ 21 1001.4R
NORTHPORT PIER   1600   41     360/ 18     1001.7
N MID LAKE BUOY  1550   41 48  360/ 19/ 23 1001.9R         5/ 5
SISTER BAY LKSHO 1604   41     340/ 19/ 26   N/A
$$




USA.gov is the U.S. government's official web portal to all federal, state and local government web resources and services.